Regional Weather Roundup
Issued by NWS

Home | Current Version | Previous Version | Text Only | Print | Product List | Glossary On
Versions: 1 2 3 4 5 6 7 8 9 10 11 12 13 14 15 16 17 18 19 20 21 22 23 24 25 26 27 28 29 30 31 32 33 34 35 36 37 38 39 40 41 42 43 44 45 46 47 48 49 50
000
ASUS43 KDTX 101910
RWRMI
MICHIGAN HOURLY REGIONAL WEATHER ROUNDUP
NATIONAL WEATHER SERVICE DETROIT/PONTIAC MI
200 PM EST SAT DEC 10 2016

NOTE: "FAIR" INDICATES FEW OR NO CLOUDS BELOW 12,000 FEET WITH NO
SIGNIFICANT WEATHER AND/OR OBSTRUCTION TO VISIBILITY.

MIZ047>049-052>055-059>063-066>070-074>076-081>083-102000-
SOUTHEAST LOWER MICHIGAN

CITY           SKY/WX    TMP DP  RH WIND       PRES   REMARKS
ADRIAN         CLOUDY    27  17  66 W13G20    30.42F WCI  16
ALMA           PTSUNNY   26  11  55 W12G20    30.37F WCI  15
ANN ARBOR      CLOUDY    28  18  66 W16       30.39F WCI  16
BAD AXE        PTSUNNY   24  12  59 W15G22    30.35S WCI  12
CARO           LGT SNOW  24  19  80 SW9G18    30.35F WCI  15
DETROIT CITY   CLOUDY    28  16  60 W10G23    30.40F WCI  19
DETROIT        PTSUNNY   30  14  51 SW12      30.41F WCI  20
FLINT          LGT SNOW  25  19  78 W8        30.38S WCI  16
GROSSE ILE     CLOUDY    30  15  53 W13G18    30.40F WCI  20
HILLSDALE      CLOUDY    23  18  80 W13       30.38S WCI  11
HOWELL         CLOUDY    27  19  71 W10G20    30.37F WCI  17

CITY           SKY/WX    TMP DP  RH WIND       PRES   REMARKS
JACKSON        CLOUDY    24  16  71 W15       30.39F WCI  11
LAMBERTVILLE   CLOUDY    31  15  51 SW10G17   30.43F WCI  22
LANSING        FLURRIES  25  17  72 W9        30.39F WCI  15
LAPEER         NOT AVBL
MASON          FLURRIES  25  20  81 W5        30.38F WCI  19
MONROE         MOSUNNY   30  16  55 SW17      30.41F WCI  19
MT. CLEMENS    LGT SNOW  28  18  67 W14       30.37F WCI  17
PONTIAC        FLURRIES  25  17  72 W12       30.35F WCI  14
PORT HOPE        N/A     25  13  60 W9G16     30.32S WCI  15
PORT HURON     CLOUDY    27  16  63 W6        30.38S WCI  20
TRI CITIES     CLOUDY    27  12  53 W16       30.37F WCI  15
MIDLAND        LGT SNOW  25  16  67 W9        30.36F WCI  16
TROY           FLURRIES  28  17  64 W12       30.41R WCI  18
SAGINAW HB     CLOUDY    28  16  59 W14       30.36F WCI  17
$$
MIZ043>046-050>051-056>058-064>065-071>073-077>080-102000-
SOUTHWEST LOWER MICHIGAN

CITY           SKY/WX    TMP DP  RH WIND       PRES   REMARKS
BATTLE CREEK   LGT SNOW  23  20  88 SW14      30.40S FOG     WCI  11
BENTON HARBOR  CLOUDY    26  16  65 W13       30.44F WCI  15
BIG RAPIDS     FLURRIES  21  15  76 NW5       30.34F WCI  14
COLDWATER      CLOUDY    25  18  74 W14G20    30.41F WCI  13
FREMONT        FLURRIES  21  13  71 W9        30.38S WCI  11
HOLLAND        FLURRIES  25  17  72 W13G18    30.42S WCI  14
GRAND RAPIDS   LGT SNOW  23  18  81 W6        30.40S WCI  16
IONIA          LGT SNOW  23  18  81 W7        30.37F WCI  15
KALAMAZOO      LGT SNOW  23  18  81 SW7       30.41F VSB 3/4 WCI  15
LUDINGTON      FLURRIES  22  12  66 W7        30.38S WCI  13
MARSHALL       LGT SNOW  25  19  79 SW10      30.39F WCI  15
MOUNT PLEASANT CLOUDY    24  15  69 W7        30.35F WCI  16
MUSKEGON       CLOUDY    24  13  62 W12       30.41S WCI  13
SOUTH HAVEN    CLOUDY    26  17  68 W10       30.42F WCI  16
$$
MIZ016>042-102000-
NORTHERN LOWER MICHIGAN

CITY           SKY/WX    TMP DP  RH WIND       PRES   REMARKS
ALPENA         CLOUDY    24  14  65 NW8       30.31S WCI  15
BEAVER ISLAND  CLOUDY    23  14  68 W14G20    30.30F WCI  11
BELLAIRE       FLURRIES  20  14  75 SW6       30.35S WCI  13
CADILLAC       LGT SNOW  20  14  79 W8        30.28F VSB 1   WCI  10
CHARLEVOIX     LGT SNOW  21  17  82 SW14      30.34S VSB 3/4 WCI   8
FRANKFORT      FLURRIES  20  13  73 NW9G20    30.36F WCI  10
GAYLORD        CLOUDY    19  10  68 W14G21    30.27S WCI   6
GRAYLING       CLOUDY    20  13  73 W10G20    30.31S WCI   9
HARBOR SPRINGS LGT SNOW  21  15  76 W10G16    30.29F WCI  10
HOUGHTON LAKE  LGT SNOW  20  14  77 W12       30.31F WCI   8
MANISTEE       FLURRIES  22  14  71 NW10      30.36F WCI  11
OSCODA         CLOUDY    26  13  57 W9        30.32R WCI  17
PELLSTON       LGT SNOW  21  14  74 W9        30.30F WCI  11
ROGERS CITY    CLOUDY    24  13  63 W8        30.31S WCI  15
TRAVERSE CITY  CLOUDY    21  12  68 W10       30.35S WCI  10
$$
MIZ007>008-015-102000-
EASTERN UPPER MICHIGAN

CITY           SKY/WX    TMP DP  RH WIND       PRES   REMARKS
KINROSS        MOSUNNY   23  12  62 SW7       30.27S WCI  15
MACKINAC ISLAN CLOUDY    22  12  65 W14G20    30.27F WCI   9
NEWBERRY       LGT SNOW  18  14  84 W6        30.24F WCI  10
S. S. MARIE    SUNNY     20  11  68 SW6       30.26F WCI  12
MUNISING         N/A     23  13  65 W16G23    30.30S WCI  10
$$
MIZ004>006-011>014-085-102000-
CENTRAL UPPER MICHIGAN

CITY           SKY/WX    TMP DP  RH WIND       PRES   REMARKS
MANISTIQUE     PTSUNNY   19  11  71 W9        30.30S WCI   7
ESCANABA       SUNNY     21   5  50 W14       30.33F WCI   8
MENOMINEE      SUNNY     18   1  47 VRB7      30.38F WCI   9
SAWYER-GWINN   SUNNY     16   5  62 W13       30.28F WCI   2
$$
MIZ001>003-009>011-084-102000-
WESTERN UPPER MICHIGAN

CITY           SKY/WX    TMP DP  RH WIND       PRES   REMARKS
IRON MOUNTAIN  MOSUNNY   16  -1  47 W10       30.31F WCI   4
HOUGHTON       FLURRIES  14   6  70 NW7       30.29F WCI   4
COPPER HARBOR    N/A     19  15  84 N15       30.32F WCI   5
IRONWOOD       PTSUNNY   11   1  64 W6        30.34F WCI   1
$$

ABBREVIATIONS USED IN REMARKS
   TC - TEMPERATURE IN CELSIUS
  WCI - WIND CHILL INDEX
   HX - HEAT INDEX
  VSB - VISIBILITY





USA.gov is the U.S. government's official web portal to all federal, state and local government web resources and services.